Tracking 22836 objects as of 18-Apr-2021
HD Live streaming from Space Station
objects crossing your sky now

GP-B

Track GP-B now!
10-day predictions
GP-B is classified as:


NORAD ID: 28230
Int'l Code: 2004-014A
Perigee: 638.5 km
Apogee: 642.0 km
Inclination: 89.8 °
Period: 97.4 minutes
Semi major axis: 7011 km
RCS: 10.7347 m2 (large)
Launch date: April 20, 2004
Source: United States (US)
Launch site: AIR FORCE WESTERN TEST RANGE (AFWTR)
aabbcc
Your satellite tracking list
Your tracking list is empty




NASA's NSSDC Master Catalog

Two Line Element Set (TLE):
1 28230U 04014A   21107.93713336  .00000142  00000-0  17071-4 0  9997
2 28230  89.8102  91.6057 0002484 104.5683 255.5816 14.78800086373263
Source of the keplerian elements: AFSPC